User: anonymous   Login
Location: Caltech
(34.1382°N, 118.1253°W)
Time: 22:50:52
(UTC-07:00)
Language:

ALOS - Orbit

View from above orbital plane
View from above orbital plane
View from above satellite
View from above satellite

Ground track
Ground track

The orbit data is extracted from the following two-line orbital elements,

1 28931U 06002A   15241.24034447  .00000557  00000-0  12003-3 0  9998
2 28931 097.9269 287.6997 0000831 135.7256 224.4012 14.61952332511318
Epoch (UTC): 29 August 2015 05:46:05
Eccentricity: 0.0000831
inclination: 97.9269°
perigee height: 686 km
apogee height: 687 km
right ascension of ascending node: 287.6997°
argument of perigee: 135.7256°
revolutions per day: 14.61952332
mean anomaly at epoch: 224.4012°
orbit number at epoch: 51131

The dashed part of the orbit path shows where the satellite is in the earth's shadow,  

DLR